Westerly, RI

1:08 AM EDT on September 28, 2016 (GMT -0400)
Westerly State

Weather History for KWST - January, 2013

Change the Weather History Date:

Wednesday, January 16, 2013

  Actual Average (KGON) Record (KGON)
Temperature  
Mean Temperature 34 °F -  
Max Temperature 36 °F 35 °F 52 °F (1990)
Min Temperature 32 °F 16 °F -2 °F (2004)
Degree Days  
Heating Degree Days 31    
Moisture  
Dew Point 33 °F    
Average Humidity 98    
Maximum Humidity 100    
Minimum Humidity 81    
Precipitation  
Precipitation 0.32 in - - ()
Sea Level Pressure  
Sea Level Pressure 30.01 in    
Wind  
Wind Speed 4 mph (North)    
Max Wind Speed 9 mph    
Max Gust Speed -    
Visibility 4 miles    
Events Rain , Snow    
Averages and records for this station are not official NWS values.
T = Trace of Precipitation, MM = Missing Value Source: NWS Daily Summary

Daily Weather History Graph

Daily Weather History Graph

Search for Another Location

Airport or City:

Trip Planner

Search our weather history database for the weather conditions in past years. The results will help you decide how hot, cold, wet, or windy it might be!

Date:

Astronomy

Jan. 16, 2013 Rise Set
Actual Time 7:10 AM EST 4:44 PM EST
Civil Twilight 6:39 AM EST 5:14 PM EST
Nautical Twilight 6:05 AM EST 5:48 PM EST
Astronomical Twilight 5:32 AM EST 6:21 PM EST
Moon 9:41 AM EST (1/16) 10:37 PM EST (1/16)
Length of Visible Light 10h 34m
Length of Day
9h 33m
Waxing Crescent, 28% of the Moon is Illuminated
Jan 16
Waxing Crescent
Jan 18
First Quarter
Jan 26
Full
Feb 3
Last Quarter
Feb 10
New

Hourly Weather History & Observations

Time (EST) Temp. Windchill Dew Point Humidity Pressure Visibility Wind Dir Wind Speed Gust Speed Precip Events Conditions
12:38 AM 35.6 °F 32.8 °F 30.2 °F 81% 30.24 in 2.0 mi Variable 3.5 mph - 0.01 in Snow Light Snow
12:53 AM 34.0 °F - 30.0 °F 85% 30.24 in 4.0 mi Calm Calm - 0.01 in Snow Light Snow
1:06 AM 33.8 °F - 30.2 °F 87% 30.23 in 2.0 mi Calm Calm - 0.00 in Snow Light Snow
1:26 AM 33.8 °F 30.8 °F 30.2 °F 87% 30.23 in 3.0 mi North 3.5 mph - 0.01 in Snow Light Snow
1:53 AM 33.1 °F 30.0 °F 32.0 °F 96% 30.24 in 1.8 mi NNE 3.5 mph - 0.01 in Snow Light Snow
2:31 AM 32.0 °F 26.4 °F 32.0 °F 100% 30.20 in 2.0 mi NNE 5.8 mph - 0.00 in Snow Light Snow
2:45 AM 33.8 °F 29.6 °F 32.0 °F 93% 30.19 in 5.0 mi NNE 4.6 mph - 0.01 in Rain Light Rain
3:53 AM 33.1 °F 28.7 °F 33.1 °F 100% 30.16 in 4.0 mi NNE 4.6 mph - 0.02 in Rain Light Rain
4:20 AM 33.8 °F 29.6 °F 33.8 °F 100% 30.15 in 4.0 mi North 4.6 mph - 0.01 in Snow Light Snow
4:32 AM 33.8 °F 29.6 °F 33.8 °F 100% 30.15 in 1.8 mi North 4.6 mph - 0.02 in Snow Light Snow
4:43 AM 32.0 °F 26.4 °F 32.0 °F 100% 30.13 in 1.2 mi NNE 5.8 mph - 0.03 in Snow Light Snow
4:53 AM 32.0 °F 25.6 °F 32.0 °F 100% 30.12 in 1.2 mi NNE 6.9 mph - 0.04 in Snow Light Snow
5:03 AM 32.0 °F 26.4 °F 32.0 °F 100% 30.11 in 2.0 mi NNE 5.8 mph - 0.01 in Snow Light Snow
5:53 AM 32.0 °F 26.4 °F 32.0 °F 100% 30.10 in 3.0 mi NNE 5.8 mph - 0.10 in Snow Light Snow
6:02 AM 32.0 °F 27.5 °F 32.0 °F 100% 30.10 in 2.0 mi NNE 4.6 mph - 0.01 in Snow Light Snow
6:19 AM 32.0 °F 26.4 °F 32.0 °F 100% 30.10 in 2.5 mi North 5.8 mph - 0.04 in Snow Light Snow
6:30 AM 33.8 °F 29.6 °F 33.8 °F 100% 30.10 in 4.0 mi North 4.6 mph - 0.06 in   Overcast
6:42 AM 32.0 °F 26.4 °F 32.0 °F 100% 30.09 in 3.0 mi NNE 5.8 mph - 0.07 in Snow Light Snow
6:53 AM 33.1 °F 28.7 °F 33.1 °F 100% 30.09 in 4.0 mi NNE 4.6 mph - 0.09 in Rain Rain
7:31 AM 33.8 °F 30.8 °F 33.8 °F 100% 30.07 in 6.0 mi North 3.5 mph - 0.03 in Rain Light Rain
7:53 AM 33.1 °F 26.9 °F 33.1 °F 100% 30.07 in 5.0 mi NNE 6.9 mph - 0.03 in Rain Light Rain
8:53 AM 33.1 °F 26.9 °F 33.1 °F 100% 30.06 in 6.0 mi NNE 6.9 mph - 0.02 in Rain Light Rain
9:18 AM 33.8 °F 26.4 °F 33.8 °F 100% 30.01 in 4.0 mi NNE 9.2 mph - 0.00 in   Overcast
9:28 AM 33.8 °F 27.7 °F 33.8 °F 100% 30.00 in 3.0 mi NE 6.9 mph - 0.00 in   Overcast
9:51 AM 33.8 °F 27.7 °F 33.8 °F 100% 29.97 in 2.5 mi NE 6.9 mph - 0.00 in   Overcast
9:53 AM 34.0 °F 28.0 °F 34.0 °F 100% 29.96 in 2.5 mi NE 6.9 mph - 0.00 in   Overcast
10:03 AM 33.8 °F 28.6 °F 33.8 °F 100% 29.95 in 3.0 mi NE 5.8 mph - N/A   Overcast
10:53 AM 34.0 °F 28.8 °F 34.0 °F 100% 29.92 in 5.0 mi NE 5.8 mph - N/A   Overcast
11:53 AM 35.1 °F 30.1 °F 35.1 °F 100% 29.92 in 4.0 mi NNE 5.8 mph - 0.00 in Rain Light Rain
12:53 PM 35.1 °F 31.0 °F 35.1 °F 100% 29.91 in 4.0 mi North 4.6 mph - 0.00 in Rain Light Rain
1:33 PM 35.6 °F 32.8 °F 35.6 °F 100% 29.88 in 5.0 mi NNE 3.5 mph - 0.00 in Rain Light Rain
1:53 PM 35.1 °F 29.3 °F 35.1 °F 100% 29.83 in 6.0 mi ENE 6.9 mph - 0.00 in   Overcast
2:53 PM 35.1 °F 27.9 °F 35.1 °F 100% 29.81 in 4.0 mi NNW 9.2 mph - N/A   Overcast
3:53 PM 35.1 °F 30.1 °F 35.1 °F 100% 29.86 in 2.0 mi NNW 5.8 mph - N/A   Overcast
4:02 PM 33.8 °F 28.6 °F 33.8 °F 100% 29.86 in 1.5 mi NNW 5.8 mph - N/A   Overcast
4:49 PM 33.8 °F 29.6 °F 33.8 °F 100% 29.87 in 2.5 mi North 4.6 mph - N/A   Overcast
4:53 PM 34.0 °F 31.0 °F 34.0 °F 100% 29.87 in 2.5 mi North 3.5 mph - N/A   Overcast
5:15 PM 33.8 °F 27.7 °F 33.8 °F 100% 29.86 in 3.0 mi North 6.9 mph - N/A   Overcast
5:34 PM 33.8 °F 28.6 °F 33.8 °F 100% 29.87 in 5.0 mi North 5.8 mph - N/A   Overcast
5:53 PM 34.0 °F 31.0 °F 34.0 °F 100% 29.86 in 6.0 mi North 3.5 mph - N/A   Overcast
6:04 PM 33.8 °F - 33.8 °F 100% 29.87 in 6.0 mi Calm Calm - N/A   Overcast
6:53 PM 34.0 °F 31.0 °F 34.0 °F 100% 29.89 in 6.0 mi WSW 3.5 mph - N/A   Overcast
7:53 PM 34.0 °F - 34.0 °F 100% 29.87 in 5.0 mi Calm Calm - N/A   Overcast
8:53 PM 35.1 °F 31.0 °F 35.1 °F 100% 29.88 in 4.0 mi Variable 4.6 mph - 0.00 in   Overcast
9:53 PM 36.0 °F 32.1 °F 36.0 °F 100% 29.88 in 9.0 mi West 4.6 mph - N/A   Overcast
10:06 PM 35.6 °F 29.9 °F 35.6 °F 100% 29.88 in 9.0 mi West 6.9 mph - N/A   Mostly Cloudy
10:53 PM 36.0 °F 31.1 °F 35.1 °F 97% 29.88 in 10.0 mi Variable 5.8 mph - N/A   Overcast
11:53 PM 36.0 °F 30.3 °F 34.0 °F 93% 29.88 in 10.0 mi West 6.9 mph - N/A   Mostly Cloudy